Location: Fredericksburg
(30.2750°N, 98.8720°W)
Time: 17:31:25
(UTC-05:00)

Daily predictions for brighter satellites

Satellite Brightness Start Highest point End
(mag) Time Altitude Azimuth Time Altitude Azimuth Time Altitude Azimuth
Cosmos 2369 Rocket 2.5 20:41:43 10° N 20:47:14 53° ENE 20:52:46 10° SE
Okean 1 4.1 20:47:30 10° SSE 20:51:02 32° E 20:54:35 10° NNE
NOSS 2-2 (D) 4.0 20:47:39 10° S 20:51:13 33° ESE 20:54:54 10° NE
GPS 2-05 Rocket1 3.8 20:49:13 10° W 20:52:04 32° SSW 20:54:56 10° SE
Resurs 01 Rocket 1.9 20:48:06 10° SSE 20:52:23 50° ENE 20:56:40 10° N
Cosmos 773 Rocket 4.3 20:51:51 10° S 20:56:42 43° ESE 21:01:33 10° NNE
Cosmos 1536 3.8 20:56:15 10° NNW 21:00:05 49° W 21:03:55 10° SSW
Cosmos 1975 4.2 20:57:00 10° NNE 21:00:11 22° ENE 21:03:22 10° SE
CENTAUR R/B 4.4 20:55:58 10° N 21:02:13 24° NE 21:08:41 10° E
Cosmos 1943 Rocket 2.9 20:57:06 10° N 21:02:13 35° ENE 21:07:15 10° SE
NOSS 3-2 (A) 4.1 20:55:53 10° NNW 21:03:40 77° ENE 21:11:55 10° SSE
Cosmos 1500 4.2 21:03:03 10° NNE 21:06:19 28° E 21:09:32 10° SE
Cosmos 292 Rocket 3.7 21:02:54 10° S 21:07:43 75° ESE 21:12:32 10° NNE
NOSS 2-2 (C) 3.3 21:06:00 10° SSW 21:09:54 58° ESE 21:14:01 10° NE
Cosmos 1939 Rocket 4.3 21:08:03 11° ESE 21:10:43 20° ENE 21:13:35 10° NNE
Cosmos 372 Rocket 4.3 21:05:48 10° NNW 21:10:56 69° WSW 21:16:01 10° S
Spot 2 Rocket 3.5 21:06:36 10° SSE 21:11:38 76° ENE 21:16:40 10° N
COSMOS 2406 3.8 21:06:56 10° SSE 21:12:07 36° ESE 21:17:17 10° NE
Meteor 1-18 Rocket 4.4 21:07:12 10° S 21:13:07 90° E 21:19:04 10° N
Helios 1B rocket 2.8 21:10:20 10° NNE 21:14:17 44° E 21:18:13 10° S
Cosmos 1455 Rocket 3.7 21:13:40 10° NNE 21:17:41 35° E 21:21:03 13° SE
COSMOS 2455 3.5 21:12:14 10° N 21:17:49 39° ENE 21:22:27 14° SE
Cosmos 1680 Rocket 4.2 21:14:58 10° SSE 21:19:33 31° E 21:24:07 10° NE
Cosmos 1812 3.9 21:16:40 10° SSW 21:20:22 45° W 21:24:06 10° N
Abrixas 2.6 21:19:02 10° WNW 21:21:42 55° SW 21:23:29 18° SSE
Meteor 1-12 Rocket 4.5 21:18:59 10° N 21:24:54 58° E 21:30:44 10° SSE
CZ-2D R/B 3.7 21:24:04 10° S 21:27:50 60° W 21:31:37 10° NNW
Cosmos 1743 4.0 21:28:15 10° NNE 21:31:24 23° E 21:32:38 20° ESE
Envisat 3.1 21:29:10 13° SSE 21:33:38 60° ENE 21:38:37 10° N
Cosmos 2263 4.3 21:28:49 10° NNW 21:34:35 82° WSW 21:39:58 12° SSE
Spot 1 4.4 21:31:12 16° SSE 21:34:46 53° ENE 21:39:04 10° N
ASTRO E2 2.8 21:31:11 10° W 21:35:10 74° N 21:38:12 17° E
Iridium 4 Rocket 3.8 21:32:52 10° N 21:37:59 74° W 21:43:32 10° S
ASTEX 1 4.5 21:36:30 20° ESE 21:38:33 27° ENE 21:42:37 10° NNE
Cosmos 1709 Rocket 4.1 21:34:06 10° N 21:40:21 82° W 21:46:30 10° S
Tiangong 2 2.0 21:38:01 10° WSW 21:41:06 50° NNW 21:44:12 10° NE
Aureole 3 Rocket 4.1 21:38:52 10° S 21:46:21 61° E 21:51:41 10° NNE
USA 186 3.4 21:48:26 10° SSW 21:51:22 32° W 21:54:17 10° NNW
Aureole 1 Rocket 2.5 21:50:25 24° S 21:52:23 51° ESE 21:55:30 10° NNE
ISS -3.8 21:50:02 10° SW 21:53:19 83° NW 21:56:37 10° NE
Meteor 2-4 Rocket 3.8 21:55:08 19° SSE 21:59:03 57° E 22:04:39 10° NNE
Cosmos 1666 3.3 21:58:25 10° NNE 22:01:53 36° E 22:01:54 36° E
CZ-4B DEB 2.8 22:04:06 50° SSW 22:04:39 65° W 22:07:38 10° NNW
Cosmos 923 Rocket 4.5 21:59:43 10° SSW 22:04:58 62° WNW 22:10:15 10° N
Cosmos 1437 4.5 22:02:05 10° SW 22:05:00 32° W 22:07:56 10° NNW
SL-08 ROCKET BODY 4.4 21:59:24 10° N 22:05:36 82° E 22:09:39 23° S
OAO 2 Rocket 3.9 22:01:07 10° W 22:05:57 53° N 22:10:00 15° ENE
Helios 1A 3.7 22:06:13 19° S 22:08:58 50° W 22:13:04 10° NNW
Meteor 2-13 Rocket 4.4 22:07:18 10° N 22:13:20 71° E 22:16:10 33° SSE
YAOGAN 6 2.4 22:16:33 71° SSW 22:16:52 82° WSW 22:20:22 10° NNW
Cosmos 2184 Rocket 3.9 22:14:15 10° N 22:20:37 84° E 22:23:44 32° S
Cosmos 2074 Rocket 3.9 22:14:27 10° N 22:20:44 87° E 22:23:57 31° S
ERS-1 Rocket 2.9 22:21:29 47° SSE 22:22:54 76° ENE 22:27:55 10° N
Cosmos 405 Rocket 4.3 22:21:14 12° SW 22:24:18 33° W 22:27:45 10° NNW
MetOp-A 4.2 22:26:30 49° SE 22:27:39 62° ENE 22:32:55 10° N
Meteor 1-23 Rocket 4.1 22:25:57 34° S 22:28:26 83° E 22:34:02 10° N
Aurora 2 Rocket 4.4 22:20:41 10° W 22:28:57 63° S 22:33:56 34° ESE
Cosmos 1656 Rocket 3.5 22:24:13 10° NNW 22:29:42 86° WSW 22:31:14 49° SSE
H-2A R/B 3.1 22:33:29 28° ENE 22:33:29 28° ENE 22:37:22 10° NNE
Cosmos 1025 Rocket 2.9 22:35:24 78° SW 22:35:39 84° W 22:39:56 10° N
Cosmos 1441 Rocket 3.9 22:36:21 43° WSW 22:36:56 48° W 22:40:33 10° N
MOS 1-B Rocket 3.8 22:36:33 54° SE 22:37:51 73° ENE 22:43:51 10° N
Meteor 1-15 Rocket 4.2 22:38:12 10° N 22:43:41 59° E 22:43:57 58° E
Cosmos 1943 Rocket 4.1 22:41:24 10° NW 22:45:39 23° W 22:48:53 14° SW
NOAA 11 4.2 22:49:36 59° SSW 22:50:36 75° WSW 22:56:03 10° NNW
SL-08 RB Rocket 4.2 22:52:50 51° NNE 22:52:50 51° NNE 22:56:26 10° N
CENTAUR R/B 3.2 22:45:28 10° NNW 22:53:38 76° WSW 22:56:31 46° S
ARGOS 3.0 22:55:04 80° SE 22:55:21 85° ENE 23:00:47 10° NNW
Gbstr 26 Del rocket 4.4 22:49:32 10° NW 22:57:36 83° NE 22:59:40 55° SE
H-2A R/B 4.1 23:01:56 20° NE 23:01:56 20° NE 23:03:59 10° NNE
SPOT 5 3.1 23:02:18 56° NNW 23:02:18 56° NNW 23:05:46 10° NNW
COSMOS 2455 4.5 22:58:42 10° NW 23:03:26 25° WSW 23:05:38 20° SW
Cosmos 2154 Rocket 4.0 22:57:53 10° N 23:04:15 82° W 23:05:15 65° SSW
Yuri Rocket 4.3 22:55:58 10° W 23:05:27 65° SSW 23:06:20 61° SSE
Cosmos 2082 Rocket 3.2 23:09:49 35° NE 23:09:49 35° NE 23:13:13 10° NNE
Cosmos 2056 Rocket 4.1 23:05:29 10° N 23:09:30 47° NNE 23:09:30 47° NNE
Terra 3.3 23:16:04 29° NNE 23:16:04 29° NNE 23:18:48 10° N
SPOT 1/Viking Rocket 4.0 23:24:55 60° NW 23:24:55 60° NW 23:29:17 10° NNW
Cosmos 2341 Rocket 4.2 23:26:08 10° NNW 23:32:25 66° W 23:32:34 66° W
Cosmos 1697 Rocket 4.3 23:34:46 10° N 23:38:08 25° NE 23:38:08 25° NE
Cosmos 839 Rocket 4.4 23:34:32 10° NNW 23:41:23 70° ENE 23:41:31 70° ENE
Cosmos 2218 Rocket 4.3 23:42:31 10° N 23:47:26 59° N 23:47:26 59° N
Cosmos 1833 Rocket 3.6 23:53:00 45° N 23:53:00 45° N 23:57:02 10° NNE
